Aérodrome :
LOGIN :

S'inscrire | Disclaimer

   EN    FR    IT 

 










Légende :    VFR   VFR Marginal   IFR   IFR Intensif   IFR Très Intensif
Visi : 
Plafond : 
>= 8 km
>= 3000ft
5 à 8 km
1000 à 3000 ft
1500m à 5 km
500 à 1000 ft
800 à 1500m
200 à 500 ft
< 800m
< 200 ft
Symboles :   Orages  Brouillard  Fortes neiges  Fortes précipitations  Vent > 20 kt
SIGMETs :   Divers  Orages  Givrage  Turbulence  Onde Orograph.  Cendres Volcan.







- Altitude de l'aérodrome : 184 ft
- Code IATA : BRU


EBBR - Bruxelles

DERNIER METAR :
  • 192020Z 29004KT 240V300 9999 FEW028 12/10 Q1021 NOSIG

METARs EXPIRÉS :
  • 191950Z 30004KT 9999 FEW024 12/10 Q1021 NOSIG
  • 191920Z 30004KT CAVOK 12/10 Q1021 NOSIG
  • 191850Z 31004KT 9999 SCT035 13/10 Q1021 NOSIG
  • 191820Z 32005KT 300V360 9999 FEW040 14/10 Q1021 NOSIG
  • 191750Z 32004KT 9999 FEW040 14/09 Q1020 NOSIG

TAF TAF EBBR
Valide du 19 à 18h jusqu'au 21 à 00h UTC


191720Z 1918/2024 29005KT 9999 SCT035
Pas de NOTAMs connus pour ce terrain.



MET'MAP, la Météo Aéronautique d'un coup d'oeil ! - Copyright ORBIFLY Décembre 2007 - Disclaimer

ORBIFLY MET'MAP TEAM :

Programmation & Développement : Alexandra Zaïnal
Conception & Développement : Baudouin d'Aumeries
Co-Programmation & Développement : Marc-Olivier Méhu
Soutien technique & logistique : Manuel Goepfert

Contact : metmap@orbifly.com




SOURCES & CREDITS :

   NOAA